Location: Lower Kingswood
(51.2667°N, 0.2167°W)
Time: 09:53:06
(UTC+00:00)

Cosmos 2333 Rocket - Pass Details

Date: 26 September 2023
Orbit: 837 x 864 km, 70.8° (Epoch: 09 December)

Event Time Altitude Azimuth Distance (km) Brightness Sun altitude
Rises 02:29:30 0° 331° (NNW) 3,421 5.5 -30.0°
Reaches altitude 10° 02:32:12 10° 340° (NNW) 2,486 4.9 -29.6°
Maximum altitude 02:37:21 34° 45° (NE) 1,389 3.8 -29.0°
Drops below altitude 10° 02:42:31 10° 109° (ESE) 2,491 5.0 -28.4°
Sets 02:45:13 0° 119° (ESE) 3,428 5.6 -28.1°
